Weather History for KANJ - September, 2014

Change the Weather History Date:

Thursday, September 18, 2014

  Actual Average Record
Temperature  
Mean Temperature 44 °F 56 °F  
Max Temperature 52 °F 66 °F 86 °F (1955)
Min Temperature 36 °F 47 °F 30 °F (1990)
Degree Days  
Heating Degree Days 21 9  
Month to date heating degree days 159 118  
Since 1 July heating degree days 340 265  
Cooling Degree Days 0 0  
Month to date cooling degree days 4 15  
Year to date cooling degree days 112 193  
Moisture  
Dew Point 33 °F    
Average Humidity 68    
Maximum Humidity 85    
Minimum Humidity 50    
Precipitation  
Precipitation 0.00 in 0.13 in 1.21 in (1947)
Month to date precipitation 3.03 2.24  
Year to date precipitation 21.95 21.41  
Sea Level Pressure  
Sea Level Pressure 30.21 in    
Wind  
Wind Speed 5 mph (East)    
Max Wind Speed 10 mph    
Max Gust Speed 15 mph    
Visibility 10 miles    
Events      
T = Trace of Precipitation, MM = Missing Value Source: NWS Daily Summary

Daily Weather History Graph

Daily Weather History Graph

Search for Another Location

Airport or City:

Trip Planner

Search our weather history database for the weather conditions in past years. The results will help you decide how hot, cold, wet, or windy it might be!

Date:

Astronomy

Sep. 18, 2014 Rise Set
Actual Time 7:19 AM EDT 7:43 PM EDT
Civil Twilight 6:48 AM EDT 8:13 PM EDT
Nautical Twilight 6:13 AM EDT 8:48 PM EDT
Astronomical Twilight 5:36 AM EDT 9:25 PM EDT
Moon 1:56 AM EDT (9/18) 4:46 PM EDT (9/18)
Length of Visible Light 13h 24m
Length of Day
12h 23m
Waning Crescent, 26% of the Moon is Illuminated
Sep 18
Waning Crescent
Sep 24
New
Oct 1
First Quarter
Oct 8
Full
Oct 15
Last Quarter

Hourly Weather History & Observations

Time (EDT) Temp. Windchill Dew Point Humidity Pressure Visibility Wind Dir Wind Speed Gust Speed Precip Events Conditions
12:55 AM 42.1 °F 39.2 °F 34.0 °F 73% 30.12 in 10.0 mi NE 4.6 mph - N/A   Overcast
1:55 AM 41.0 °F 36.4 °F 33.1 °F 73% 30.13 in 10.0 mi NE 6.9 mph - N/A   Overcast
2:55 AM 39.9 °F 37.8 °F 33.1 °F 77% 30.15 in 10.0 mi NE 3.5 mph - N/A   Mostly Cloudy
3:15 AM 39.0 °F 35.7 °F 33.1 °F 79% 30.14 in 10.0 mi NE 4.6 mph - N/A   Scattered Clouds
3:55 AM 37.9 °F - 32.0 °F 79% 30.16 in 10.0 mi Calm Calm - N/A   Clear
5:37 AM 37.0 °F 33.3 °F 33.1 °F 86% 30.18 in 10.0 mi NE 4.6 mph - N/A   Mostly Cloudy
5:55 AM 37.0 °F 34.5 °F 33.1 °F 86% 30.19 in 10.0 mi ENE 3.5 mph - N/A   Mostly Cloudy
6:03 AM 37.0 °F 33.3 °F 32.0 °F 82% 30.19 in 10.0 mi ENE 4.6 mph - N/A   Mostly Cloudy
6:15 AM 36.0 °F 33.3 °F 32.0 °F 86% 30.19 in 10.0 mi NE 3.5 mph - N/A   Scattered Clouds
6:55 AM 37.0 °F 33.3 °F 33.1 °F 86% 30.21 in 10.0 mi ENE 4.6 mph - N/A   Mostly Cloudy
8:11 AM 37.0 °F 32.4 °F 32.0 °F 82% 30.22 in 10.0 mi ENE 5.8 mph - N/A   Scattered Clouds
8:55 AM 39.9 °F 37.8 °F 33.1 °F 77% 30.24 in 10.0 mi Variable 3.5 mph - N/A   Clear
9:55 AM 42.1 °F 37.7 °F 33.1 °F 70% 30.25 in 10.0 mi Variable 6.9 mph - N/A   Clear
10:55 AM 44.1 °F 40.1 °F 30.9 °F 60% 30.25 in 10.0 mi ESE 6.9 mph - N/A   Clear
11:55 AM 46.9 °F - 30.9 °F 54% 30.25 in 10.0 mi Variable 4.6 mph - N/A   Partly Cloudy
12:55 PM 46.9 °F - 30.9 °F 54% 30.26 in 10.0 mi East 4.6 mph - N/A   Scattered Clouds
1:55 PM 48.9 °F - 30.9 °F 50% 30.26 in 10.0 mi Variable 3.5 mph - N/A   Partly Cloudy
2:55 PM 50.0 °F - 33.1 °F 52% 30.24 in 10.0 mi Variable 5.8 mph - N/A   Scattered Clouds
3:55 PM 51.1 °F - 33.1 °F 50% 30.23 in 10.0 mi SSE 5.8 mph - N/A   Clear
4:55 PM 51.1 °F - 33.1 °F 50% 30.21 in 10.0 mi Variable 5.8 mph - N/A   Clear
5:55 PM 52.0 °F - 33.1 °F 49% 30.20 in 10.0 mi Variable 5.8 mph - N/A   Clear
6:55 PM 50.0 °F - 33.1 °F 52% 30.21 in 10.0 mi SE 6.9 mph - N/A   Clear
7:55 PM 46.0 °F 43.9 °F 35.1 °F 66% 30.21 in 10.0 mi SSE 4.6 mph - N/A   Clear
8:55 PM 44.1 °F 40.1 °F 35.1 °F 71% 30.22 in 10.0 mi SE 6.9 mph - N/A   Clear
9:55 PM 42.1 °F 38.4 °F 35.1 °F 76% 30.22 in 10.0 mi SE 5.8 mph - N/A   Clear
10:55 PM 42.1 °F 37.7 °F 35.1 °F 76% 30.22 in 10.0 mi SSE 6.9 mph - N/A   Clear
11:55 PM 39.9 °F 37.8 °F 35.1 °F 83% 30.24 in 10.0 mi East 3.5 mph - N/A   Clear